Regional Weather Roundup
Issued by NWS State College, PA

Home | Current Version | Previous Version | Text Only | Print | Product List | Glossary On
Versions: 1 2 3 4 5 6 7 8 9 10 11 12 13 14 15 16 17 18 19 20 21 22 23 24 25 26 27 28 29 30 31 32 33 34 35 36 37 38 39 40 41 42 43 44 45 46 47 48 49 50
000
ASUS41 KCTP 160210
RWRCTP

REGIONAL WEATHER ROUNDUP
NATIONAL WEATHER SERVICE STATE COLLEGE PA
1000 PM EDT TUE APR 15 2014

Note: "fair" indicates few or no clouds below 12,000 feet with no
significant weather and/or obstructions to visibility.

* = STATION THAT DOES NOT REPORT PRECIPITATION /E.G. RAIN...SNOW...ETC/
    THUNDER OR FOG.

PAZ002>004-007>009-013>016-020>023-029>032-160300-
WESTERN PENNSYLVANIA

CITY           SKY/WX    TMP DP  RH WIND       PRES   REMARKS
ERIE           PTCLDY    28  16  60 NW13G18   30.17R
MEADVILLE      PTCLDY    25  19  78 NW7       30.12R
FRANKLIN*      MOCLDY    25  18  74 NW8       30.11R
NEW CASTLE     FAIR      26  16  66 W3        30.16R
BEAVER COUNTY  NOT AVBL
BUTLER*        PTCLDY    27  16  63 NW5       30.14R
PITTSBURGH INT FLURRIES  30  20  66 NW14      30.13R
PITTSBURGH     CLOUDY    30  17  58 NW12G21   30.12R
INDIANA*       CLOUDY    27  21  80 NW8G21    30.09S
LATROBE        CLOUDY    32  21  64 NW14G25   30.13R
WASHINGTON CO* CLOUDY    28  18  64 NW8       30.16R
$$

PAZ004>006-010>012-017>019-024>028-033>037-041-042-045-046-049>053-160300-
CENTRAL PENNSYLVANIA

CITY           SKY/WX    TMP DP  RH WIND       PRES   REMARKS
BRADFORD       FLURRIES  21  14  74 NW12G21   30.02R WCI   9
DUBOIS         CLOUDY    26  12  55 NW15G22   30.04R WCI  14
CLEARFIELD     MOCLDY    26  15  63 NW17G28   30.04R WCI  13
JOHNSTOWN      MIX PCPN  24  15  68 NW23G38   30.00R WCI   9
ALTOONA        CLOUDY    30  18  60 NW20G31   30.03R
STATE COLLEGE    N/A     32  15  50 N10G17    30.03R
WILLIAMSPORT   CLOUDY    35  21  56 W18G29    30.01R
SELINSGROVE    CLOUDY    36  24  62 NW14G20   30.01R
FT INDIANTOWN  CLOUDY    36  30  78 NW8G20    29.95S
CAPITAL CITY   CLOUDY    38  26  62 NW17      29.98R
HARRISBURG     CLOUDY    39  27  62 NW20      29.96R
YORK           CLOUDY    37  29  72 NW15G25   29.97R
$$

PAZ038>040-043-044-047-048-054-055-060>062-067>071-160300-
EASTERN PENNSYLVANIA

CITY           SKY/WX    TMP DP  RH WIND       PRES   REMARKS
SCRANTON       MIX PCPN  31  28  89 NW17G25   29.96R
MOUNT POCONO   HVY SNOW  29  27  92 NW18G24   29.84R VSB 1/4
ALLENTOWN      LGT SNOW  34  30  86 NW15G21   29.91R VSB 3/4
QUAKERTOWN*    CLOUDY    34  32  93 NW14G26   29.89F
READING        LGT SNOW  35  32  88 N14       29.93S FOG
LANCASTER      LGT RAIN  36  31  82 NW15G29   29.94R
COATESVILLE    NOT AVBL
POTTSTOWN      LGT RAIN  35  34  96 NW7       29.93R
BLUE BELL      CLOUDY    39  36  87 NW3       29.89R
DOYLESTOWN     LGT RAIN  35  35 100 NW10G20   29.86S
WILLOW GROVE   NOT AVBL
NORTH PHILA    LGT RAIN  40  33  76 N14       29.90R
PHILADELPHIA   LGT RAIN  40  34  79 NW15      29.92R
$$



USA.gov is the U.S. government's official web portal to all federal, state and local government web resources and services.